SWA345 KLAX-KBWI

Flight info

Callsign SWA345
Flight time 4h 16m
Altitude 37000
Route DOTSS2 CLEEE PKE J96 GUP KA36U PER EOS FAM PLESS APALO IIU ZIEBR SITTR CJAAE RAVNN8
Aircraft B738/M-SDGIJ1LRWY/SB1

Departure

Time 2026-05-04 13:19
Airport Los Angeles International Airport (KLAX)

Arrival

Time 2026-05-04 17:35
Airport Baltimore/Washington International Thurgood Marshall Airport (KBWI)
Time Latitude Longitude Altitude Speed Heading
2026-05-04 12:32 33.94792 -118.40133 116 ft 0 kts 188°
2026-05-04 13:05 33.94806 -118.40130 116 ft 2 kts 188°
2026-05-04 13:05 33.94821 -118.40127 116 ft 2 kts 207°
2026-05-04 13:05 33.94833 -118.40116 115 ft 2 kts 228°
2026-05-04 13:05 33.94841 -118.40101 115 ft 2 kts 251°
2026-05-04 13:06 33.94843 -118.40090 115 ft 0 kts 264°
2026-05-04 13:06 33.94844 -118.40083 115 ft 0 kts 266°
2026-05-04 13:09 33.94841 -118.40118 115 ft 8 kts 265°
2026-05-04 13:09 33.94829 -118.40224 116 ft 16 kts 260°
2026-05-04 13:10 33.94804 -118.40394 117 ft 21 kts 263°
2026-05-04 13:10 33.94787 -118.40563 120 ft 18 kts 263°
2026-05-04 13:10 33.94772 -118.40713 120 ft 16 kts 263°
2026-05-04 13:10 33.94756 -118.40851 121 ft 16 kts 262°
2026-05-04 13:11 33.94742 -118.40981 122 ft 14 kts 264°
2026-05-04 13:11 33.94733 -118.41091 123 ft 12 kts 263°
2026-05-04 13:11 33.94714 -118.41196 123 ft 13 kts 253°
2026-05-04 13:11 33.94647 -118.41275 120 ft 16 kts 182°
2026-05-04 13:12 33.94532 -118.41261 120 ft 15 kts 174°
2026-05-04 13:12 33.94426 -118.41246 120 ft 15 kts 173°
2026-05-04 13:12 33.94310 -118.41229 120 ft 16 kts 173°
2026-05-04 13:12 33.94198 -118.41214 122 ft 14 kts 173°
2026-05-04 13:13 33.94081 -118.41198 122 ft 16 kts 174°
2026-05-04 13:13 33.93968 -118.41182 123 ft 14 kts 172°
2026-05-04 13:13 33.93875 -118.41164 125 ft 11 kts 173°
2026-05-04 13:13 33.93797 -118.41151 126 ft 9 kts 159°
2026-05-04 13:14 33.93770 -118.41086 126 ft 8 kts 88°
2026-05-04 13:14 33.93781 -118.40963 126 ft 23 kts 83°
2026-05-04 13:14 33.93805 -118.40737 126 ft 27 kts 83°
2026-05-04 13:14 33.93828 -118.40512 123 ft 27 kts 83°
2026-05-04 13:15 33.93852 -118.40278 120 ft 29 kts 83°
2026-05-04 13:15 33.93877 -118.40035 117 ft 29 kts 83°
2026-05-04 13:15 33.93902 -118.39785 112 ft 30 kts 83°
2026-05-04 13:15 33.93928 -118.39535 110 ft 29 kts 83°
2026-05-04 13:16 33.93952 -118.39289 106 ft 30 kts 83°
2026-05-04 13:16 33.93979 -118.39021 104 ft 32 kts 83°
2026-05-04 13:16 33.94007 -118.38757 103 ft 31 kts 83°
2026-05-04 13:16 33.94034 -118.38504 103 ft 29 kts 83°
2026-05-04 13:17 33.94057 -118.38260 100 ft 27 kts 84°
2026-05-04 13:17 33.94077 -118.38075 100 ft 10 kts 82°
2026-05-04 13:17 33.94059 -118.38013 100 ft 7 kts 148°
2026-05-04 13:17 33.94010 -118.38004 100 ft 6 kts 190°
2026-05-04 13:18 33.93982 -118.38062 100 ft 13 kts 261°
2026-05-04 13:18 33.93950 -118.38354 100 ft 67 kts 263°
2026-05-04 13:18 33.93866 -118.39187 107 ft 129 kts 263°
2026-05-04 13:18 33.93729 -118.40482 199 ft 171 kts 263°
2026-05-04 13:19 33.93582 -118.41950 840 ft 176 kts 265°
2026-05-04 13:19 33.93508 -118.42944 1316 ft 176 kts 266°
2026-05-04 13:19 33.93427 -118.44936 2049 ft 180 kts 270°
2026-05-04 13:19 33.93446 -118.46593 2150 ft 210 kts 273°
2026-05-04 13:20 33.93525 -118.48496 2557 ft 225 kts 268°
2026-05-04 13:20 33.93069 -118.50332 3268 ft 228 kts 241°
2026-05-04 13:20 33.91983 -118.51792 3933 ft 234 kts 219°
2026-05-04 13:20 33.90585 -118.52867 4532 ft 241 kts 213°
2026-05-04 13:21 33.89134 -118.53913 5144 ft 245 kts 215°
2026-05-04 13:21 33.87660 -118.55045 5872 ft 245 kts 215°
2026-05-04 13:21 33.86099 -118.56023 6576 ft 248 kts 201°
2026-05-04 13:21 33.84314 -118.56213 7225 ft 257 kts 175°
2026-05-04 13:22 33.82534 -118.55720 7720 ft 267 kts 167°
2026-05-04 13:22 33.80684 -118.55112 8149 ft 278 kts 169°
2026-05-04 13:22 33.78772 -118.54540 8770 ft 281 kts 170°
2026-05-04 13:22 33.76882 -118.54016 9468 ft 279 kts 171°
2026-05-04 13:23 33.74992 -118.53508 10129 ft 280 kts 172°
2026-05-04 13:23 33.73111 -118.52992 10764 ft 281 kts 170°
2026-05-04 13:23 33.71217 -118.52168 11151 ft 298 kts 155°
2026-05-04 13:23 33.69581 -118.50530 11412 ft 323 kts 133°
2026-05-04 13:24 33.68449 -118.48104 11716 ft 343 kts 115°
2026-05-04 13:24 33.67623 -118.45338 11988 ft 360 kts 112°
2026-05-04 13:24 33.66808 -118.42461 12249 ft 374 kts 113°
2026-05-04 13:25 33.65050 -118.36345 12781 ft 403 kts 111°
2026-05-04 13:25 33.64397 -118.33050 13090 ft 418 kts 102°
2026-05-04 13:25 33.64153 -118.29519 13541 ft 428 kts 95°
2026-05-04 13:25 33.64134 -118.25958 14057 ft 434 kts 92°
2026-05-04 13:26 33.64210 -118.22282 14577 ft 441 kts 91°
2026-05-04 13:26 33.64305 -118.18612 15149 ft 444 kts 91°
2026-05-04 13:26 33.64383 -118.14909 15692 ft 449 kts 92°
2026-05-04 13:26 33.64433 -118.11175 16235 ft 453 kts 93°
2026-05-04 13:27 33.64458 -118.07397 16694 ft 459 kts 94°
2026-05-04 13:27 33.64468 -118.03529 17214 ft 463 kts 94°
2026-05-04 13:27 33.64465 -117.99674 17626 ft 470 kts 95°
2026-05-04 13:27 33.64455 -117.95733 18159 ft 473 kts 94°
2026-05-04 13:28 33.64444 -117.91795 18620 ft 478 kts 95°
2026-05-04 13:28 33.64432 -117.87817 19056 ft 483 kts 95°
2026-05-04 13:28 33.64447 -117.83780 19545 ft 488 kts 94°
2026-05-04 13:28 33.64622 -117.79691 20090 ft 493 kts 89°
2026-05-04 13:29 33.65059 -117.75600 20448 ft 502 kts 85°
2026-05-04 13:29 33.65705 -117.71500 20911 ft 507 kts 81°
2026-05-04 13:29 33.66482 -117.67354 21362 ft 512 kts 80°
2026-05-04 13:29 33.67327 -117.63171 21825 ft 516 kts 79°
2026-05-04 13:30 33.68188 -117.58999 22214 ft 521 kts 79°
2026-05-04 13:30 33.69060 -117.54781 22681 ft 524 kts 79°
2026-05-04 13:30 33.69929 -117.50507 23082 ft 528 kts 79°
2026-05-04 13:30 33.70784 -117.46227 23433 ft 533 kts 80°
2026-05-04 13:31 33.71629 -117.41914 23806 ft 537 kts 81°
2026-05-04 13:31 33.72470 -117.37557 24187 ft 539 kts 81°
2026-05-04 13:31 33.73307 -117.33169 24579 ft 543 kts 81°
2026-05-04 13:31 33.74077 -117.28750 24910 ft 545 kts 84°
2026-05-04 13:32 33.74670 -117.24233 25203 ft 547 kts 88°
2026-05-04 13:32 33.75029 -117.19672 25499 ft 548 kts 91°
2026-05-04 13:32 33.75170 -117.15134 25852 ft 548 kts 95°
2026-05-04 13:32 33.75158 -117.10590 26260 ft 548 kts 97°
2026-05-04 13:33 33.75058 -117.06026 26866 ft 542 kts 99°
2026-05-04 13:33 33.74924 -117.01562 27559 ft 535 kts 99°
2026-05-04 13:33 33.74777 -116.97125 28146 ft 531 kts 100°
2026-05-04 13:33 33.74628 -116.92741 28425 ft 535 kts 99°
2026-05-04 13:34 33.74480 -116.88275 28709 ft 538 kts 99°
2026-05-04 13:34 33.74340 -116.83755 28985 ft 542 kts 98°
2026-05-04 13:34 33.74213 -116.79252 29380 ft 542 kts 98°
2026-05-04 13:34 33.74098 -116.74768 29885 ft 540 kts 98°
2026-05-04 13:35 33.73991 -116.70299 30419 ft 536 kts 98°
2026-05-04 13:35 33.73780 -116.61401 31158 ft 538 kts 98°
2026-05-04 13:35 33.73669 -116.56873 31267 ft 544 kts 98°
2026-05-04 13:36 33.73555 -116.52316 31500 ft 547 kts 98°
2026-05-04 13:36 33.73439 -116.47733 31766 ft 550 kts 98°
2026-05-04 13:36 33.73322 -116.43156 31911 ft 555 kts 98°
2026-05-04 13:36 33.73201 -116.38535 32235 ft 555 kts 98°
2026-05-04 13:37 33.73080 -116.33931 32606 ft 554 kts 98°
2026-05-04 13:37 33.72957 -116.29260 32835 ft 556 kts 98°
2026-05-04 13:37 33.72831 -116.24678 33094 ft 557 kts 98°
2026-05-04 13:37 33.72745 -116.21541 33202 ft 559 kts 99°
2026-05-04 13:38 33.72604 -116.15344 33626 ft 561 kts 97°
2026-05-04 13:38 33.72689 -116.10631 33833 ft 566 kts 91°
2026-05-04 13:38 33.73072 -116.05961 34085 ft 571 kts 85°
2026-05-04 13:38 33.73794 -116.01267 34382 ft 573 kts 79°
2026-05-04 13:39 33.74811 -115.96613 34609 ft 576 kts 75°
2026-05-04 13:39 33.76025 -115.92049 34769 ft 579 kts 72°
2026-05-04 13:39 33.77385 -115.87454 34984 ft 580 kts 71°
2026-05-04 13:39 33.78777 -115.82942 35144 ft 582 kts 70°
2026-05-04 13:40 33.80186 -115.78369 35299 ft 584 kts 71°
2026-05-04 13:40 33.81562 -115.73814 35467 ft 585 kts 72°
2026-05-04 13:40 33.82904 -115.69244 35606 ft 586 kts 72°
2026-05-04 13:40 33.84232 -115.64597 35749 ft 587 kts 72°
2026-05-04 13:41 33.85533 -115.59934 35819 ft 585 kts 72°
2026-05-04 13:41 33.86804 -115.55310 35926 ft 581 kts 72°
2026-05-04 13:41 33.88047 -115.50742 36010 ft 579 kts 73°
2026-05-04 13:42 33.90516 -115.41617 36370 ft 576 kts 72°
2026-05-04 13:42 33.91759 -115.37021 36534 ft 577 kts 73°
2026-05-04 13:42 33.93003 -115.32416 36716 ft 577 kts 73°
2026-05-04 13:42 33.94235 -115.27853 36869 ft 576 kts 74°
2026-05-04 13:43 33.96678 -115.18816 36891 ft 552 kts 73°
2026-05-04 13:43 33.99037 -115.10081 36894 ft 551 kts 73°
2026-05-04 13:44 34.01408 -115.01259 36884 ft 556 kts 72°
2026-05-04 13:44 34.03780 -114.92420 36884 ft 558 kts 72°
2026-05-04 13:45 34.06157 -114.83532 36890 ft 557 kts 72°
2026-05-04 13:45 34.08522 -114.74655 36887 ft 560 kts 72°
2026-05-04 13:46 34.10903 -114.65700 36890 ft 557 kts 72°
2026-05-04 13:46 34.13365 -114.56823 36893 ft 559 kts 71°
2026-05-04 13:47 34.15900 -114.47958 36895 ft 560 kts 70°
2026-05-04 13:47 34.18429 -114.39106 36891 ft 558 kts 71°
2026-05-04 13:48 34.20940 -114.30205 36892 ft 558 kts 71°
2026-05-04 13:48 34.23431 -114.21314 36892 ft 559 kts 71°
2026-05-04 13:49 34.25911 -114.12431 36890 ft 559 kts 71°
2026-05-04 13:49 34.28394 -114.03494 36901 ft 559 kts 71°
2026-05-04 13:50 34.30840 -113.94656 36901 ft 557 kts 70°
2026-05-04 13:50 34.33305 -113.85715 36914 ft 559 kts 71°
2026-05-04 13:51 34.35762 -113.76763 36924 ft 558 kts 70°
2026-05-04 13:51 34.38209 -113.67821 36939 ft 559 kts 71°
2026-05-04 13:52 34.41858 -113.54454 36975 ft 558 kts 70°
2026-05-04 13:53 34.44290 -113.45521 36982 ft 559 kts 71°
2026-05-04 13:53 34.46704 -113.36612 36992 ft 558 kts 70°
2026-05-04 13:54 34.50336 -113.23185 36996 ft 560 kts 70°
2026-05-04 13:55 34.53931 -113.09813 37004 ft 557 kts 71°
2026-05-04 13:55 34.57502 -112.96441 37039 ft 560 kts 70°
2026-05-04 13:56 34.59889 -112.87475 37042 ft 557 kts 71°
2026-05-04 13:57 34.63430 -112.74126 37049 ft 556 kts 70°
2026-05-04 13:58 34.68134 -112.56278 37051 ft 558 kts 70°
2026-05-04 13:58 34.71617 -112.42809 37054 ft 557 kts 72°
2026-05-04 13:59 34.73714 -112.33812 37058 ft 554 kts 73°
2026-05-04 14:00 34.76728 -112.20319 37069 ft 557 kts 73°
2026-05-04 14:00 34.79751 -112.06776 37069 ft 553 kts 74°
2026-05-04 14:01 34.81781 -111.97789 37071 ft 553 kts 73°
2026-05-04 14:02 34.84849 -111.84264 37064 ft 554 kts 73°
2026-05-04 14:02 34.86871 -111.75272 37067 ft 553 kts 73°
2026-05-04 14:03 34.88902 -111.66213 37082 ft 553 kts 73°
2026-05-04 14:03 34.90910 -111.57230 37092 ft 552 kts 72°
2026-05-04 14:04 34.93903 -111.43773 37105 ft 553 kts 73°
2026-05-04 14:04 34.95912 -111.34726 37105 ft 552 kts 72°
2026-05-04 14:05 34.98895 -111.21186 37113 ft 554 kts 72°
2026-05-04 14:06 35.00874 -111.12130 37107 ft 553 kts 73°
2026-05-04 14:06 35.02826 -111.03155 37113 ft 553 kts 73°
2026-05-04 14:07 35.04797 -110.94063 37106 ft 555 kts 72°
2026-05-04 14:07 35.06761 -110.84985 37098 ft 552 kts 72°
2026-05-04 14:08 35.08704 -110.75956 37072 ft 553 kts 73°
2026-05-04 14:08 35.10639 -110.66933 37079 ft 553 kts 73°
2026-05-04 14:09 35.13555 -110.53313 37101 ft 554 kts 73°
2026-05-04 14:10 35.16458 -110.39661 37111 ft 555 kts 73°
2026-05-04 14:10 35.18375 -110.30572 37117 ft 554 kts 74°
2026-05-04 14:11 35.20277 -110.21513 37115 ft 554 kts 73°
2026-05-04 14:11 35.23133 -110.07855 37124 ft 554 kts 73°
2026-05-04 14:12 35.25036 -109.98744 37130 ft 554 kts 72°
2026-05-04 14:13 35.27875 -109.85072 37134 ft 554 kts 73°
2026-05-04 14:13 35.29748 -109.75986 37136 ft 553 kts 72°
2026-05-04 14:14 35.31622 -109.66860 37140 ft 554 kts 72°
2026-05-04 14:14 35.34411 -109.53194 37138 ft 551 kts 73°
2026-05-04 14:15 35.38106 -109.34990 37147 ft 554 kts 73°
2026-05-04 14:16 35.40873 -109.21272 37159 ft 551 kts 72°
2026-05-04 14:17 35.43598 -109.07632 37164 ft 552 kts 72°
2026-05-04 14:18 35.46320 -108.93937 37165 ft 552 kts 72°
2026-05-04 14:19 35.49901 -108.75707 37157 ft 553 kts 73°
2026-05-04 14:19 35.51675 -108.66549 37165 ft 553 kts 73°
2026-05-04 14:20 35.53439 -108.57392 37174 ft 554 kts 72°
2026-05-04 14:20 35.55211 -108.48186 37183 ft 553 kts 73°
2026-05-04 14:21 35.57837 -108.34464 37189 ft 553 kts 74°
2026-05-04 14:21 35.59589 -108.25227 37178 ft 555 kts 73°
2026-05-04 14:22 35.61328 -108.16061 37177 ft 555 kts 73°
2026-05-04 14:22 35.63075 -108.06805 37179 ft 555 kts 73°
2026-05-04 14:23 35.65660 -107.92975 37163 ft 556 kts 73°
2026-05-04 14:24 35.67387 -107.83717 37165 ft 556 kts 73°
2026-05-04 14:24 35.69119 -107.74402 37165 ft 555 kts 73°
2026-05-04 14:25 35.70829 -107.65162 37170 ft 557 kts 73°
2026-05-04 14:25 35.73367 -107.51299 37170 ft 555 kts 73°
2026-05-04 14:26 35.75057 -107.42050 37172 ft 556 kts 72°
2026-05-04 14:26 35.76745 -107.32785 37170 ft 557 kts 73°
2026-05-04 14:27 35.78414 -107.23535 37175 ft 555 kts 73°
2026-05-04 14:27 35.80073 -107.14320 37179 ft 557 kts 73°
2026-05-04 14:28 35.81740 -107.05024 37186 ft 556 kts 73°
2026-05-04 14:28 35.83394 -106.95745 37191 ft 556 kts 73°
2026-05-04 14:29 35.86686 -106.77150 37187 ft 554 kts 72°
2026-05-04 14:30 35.88319 -106.67886 37192 ft 556 kts 73°
2026-05-04 14:31 35.90757 -106.53998 37190 ft 553 kts 73°
2026-05-04 14:32 35.93960 -106.35447 37160 ft 555 kts 72°
2026-05-04 14:32 35.95554 -106.26187 37138 ft 553 kts 72°
2026-05-04 14:33 35.97130 -106.16950 37137 ft 553 kts 73°
2026-05-04 14:33 35.98696 -106.07729 37131 ft 552 kts 73°
2026-05-04 14:34 36.00267 -105.98450 37131 ft 552 kts 73°
2026-05-04 14:34 36.01574 -105.89114 37148 ft 553 kts 76°
2026-05-04 14:35 36.02639 -105.79748 37174 ft 554 kts 78°
2026-05-04 14:35 36.03671 -105.70338 37189 ft 554 kts 77°
2026-05-04 14:36 36.04724 -105.61030 37194 ft 550 kts 78°
2026-05-04 14:36 36.05810 -105.51691 37205 ft 549 kts 76°
2026-05-04 14:37 36.06908 -105.42329 37192 ft 550 kts 76°
2026-05-04 14:37 36.08000 -105.33020 37185 ft 549 kts 77°
2026-05-04 14:38 36.09077 -105.23759 37181 ft 549 kts 78°
2026-05-04 14:38 36.10155 -105.14436 37184 ft 549 kts 77°
2026-05-04 14:39 36.11212 -105.05176 37184 ft 545 kts 77°
2026-05-04 14:39 36.12272 -104.95873 37177 ft 546 kts 77°
2026-05-04 14:40 36.13852 -104.81953 37126 ft 549 kts 77°
2026-05-04 14:40 36.14907 -104.72588 37120 ft 549 kts 78°
2026-05-04 14:41 36.15948 -104.63237 37118 ft 553 kts 77°
2026-05-04 14:42 36.17986 -104.44543 37106 ft 551 kts 78°
2026-05-04 14:42 36.18998 -104.35179 37100 ft 551 kts 78°
2026-05-04 14:43 36.20020 -104.25716 37087 ft 554 kts 78°
2026-05-04 14:43 36.21020 -104.16341 37083 ft 553 kts 78°
2026-05-04 14:44 36.22023 -104.06896 37084 ft 557 kts 78°
2026-05-04 14:44 36.23024 -103.97396 37069 ft 559 kts 78°
2026-05-04 14:45 36.24012 -103.87920 37065 ft 558 kts 78°
2026-05-04 14:45 36.24994 -103.78416 37058 ft 556 kts 77°
2026-05-04 14:46 36.25972 -103.68928 37052 ft 557 kts 78°
2026-05-04 14:46 36.26941 -103.59387 37056 ft 558 kts 77°
2026-05-04 14:47 36.27902 -103.49913 37038 ft 559 kts 78°
2026-05-04 14:47 36.28854 -103.40395 37032 ft 558 kts 77°
2026-05-04 14:48 36.29810 -103.30798 37018 ft 559 kts 79°
2026-05-04 14:48 36.30745 -103.21302 36996 ft 559 kts 79°
2026-05-04 14:49 36.31674 -103.11787 36984 ft 559 kts 78°
2026-05-04 14:49 36.32605 -103.02251 36980 ft 561 kts 78°
2026-05-04 14:50 36.33526 -102.92670 36979 ft 558 kts 78°
2026-05-04 14:50 36.34435 -102.83128 36973 ft 559 kts 79°
2026-05-04 14:51 36.35351 -102.73542 36968 ft 561 kts 78°
2026-05-04 14:51 36.36240 -102.64043 36950 ft 556 kts 77°
2026-05-04 14:52 36.37122 -102.54507 36946 ft 557 kts 77°
2026-05-04 14:52 36.37992 -102.45015 36938 ft 555 kts 78°
2026-05-04 14:53 36.38862 -102.35526 36921 ft 558 kts 78°
2026-05-04 14:53 36.39727 -102.25978 36917 ft 555 kts 78°
2026-05-04 14:54 36.40581 -102.16490 36916 ft 556 kts 78°
2026-05-04 14:54 36.41434 -102.06951 36905 ft 557 kts 78°
2026-05-04 14:55 36.42271 -101.97476 36897 ft 555 kts 78°
2026-05-04 14:55 36.43090 -101.87989 36895 ft 553 kts 77°
2026-05-04 14:56 36.43914 -101.78499 36895 ft 555 kts 78°
2026-05-04 14:56 36.44734 -101.68980 36893 ft 555 kts 77°
2026-05-04 14:57 36.45535 -101.59530 36881 ft 553 kts 77°
2026-05-04 14:57 36.46333 -101.50014 36869 ft 555 kts 78°
2026-05-04 14:58 36.47125 -101.40498 36858 ft 553 kts 78°
2026-05-04 14:58 36.47772 -101.32590 36849 ft 555 kts 78°
2026-05-04 14:59 36.48680 -101.21516 36843 ft 557 kts 78°
2026-05-04 15:00 36.49831 -101.07250 36843 ft 554 kts 79°
2026-05-04 15:00 36.50588 -100.97716 36842 ft 556 kts 78°
2026-05-04 15:01 36.51707 -100.83385 36816 ft 556 kts 78°
2026-05-04 15:01 36.52443 -100.73939 36824 ft 553 kts 78°
2026-05-04 15:02 36.53188 -100.64400 36821 ft 556 kts 78°
2026-05-04 15:02 36.53909 -100.54900 36823 ft 552 kts 78°
2026-05-04 15:03 36.54620 -100.45422 36828 ft 550 kts 77°
2026-05-04 15:03 36.55324 -100.35988 36827 ft 553 kts 79°
2026-05-04 15:04 36.56018 -100.26502 36821 ft 552 kts 78°
2026-05-04 15:04 36.56701 -100.17051 36819 ft 548 kts 79°
2026-05-04 15:05 36.57388 -100.07610 36814 ft 551 kts 79°
2026-05-04 15:05 36.58062 -99.98162 36808 ft 549 kts 79°
2026-05-04 15:06 36.58727 -99.88654 36809 ft 546 kts 79°
2026-05-04 15:07 36.59707 -99.74517 36794 ft 549 kts 79°
2026-05-04 15:07 36.60348 -99.65102 36791 ft 545 kts 79°
2026-05-04 15:08 36.60979 -99.55746 36787 ft 544 kts 79°
2026-05-04 15:08 36.61603 -99.46405 36780 ft 546 kts 79°
2026-05-04 15:09 36.62220 -99.37015 36779 ft 544 kts 79°
2026-05-04 15:09 36.62828 -99.27697 36778 ft 542 kts 79°
2026-05-04 15:10 36.63735 -99.13630 36780 ft 544 kts 79°
2026-05-04 15:11 36.64623 -98.99576 36777 ft 545 kts 79°
2026-05-04 15:11 36.65201 -98.90244 36779 ft 542 kts 79°
2026-05-04 15:12 36.65770 -98.80941 36775 ft 544 kts 79°
2026-05-04 15:12 36.66335 -98.71570 36769 ft 541 kts 79°
2026-05-04 15:13 36.66887 -98.62278 36777 ft 542 kts 79°
2026-05-04 15:13 36.67436 -98.52937 36771 ft 538 kts 79°
2026-05-04 15:14 36.67976 -98.43685 36760 ft 540 kts 79°
2026-05-04 15:14 36.68511 -98.34392 36769 ft 538 kts 80°
2026-05-04 15:15 36.69040 -98.25127 36763 ft 542 kts 80°
2026-05-04 15:15 36.69560 -98.15788 36769 ft 539 kts 80°
2026-05-04 15:16 36.70316 -98.01902 36761 ft 539 kts 80°
2026-05-04 15:17 36.71059 -97.87965 36773 ft 534 kts 79°
2026-05-04 15:17 36.71785 -97.74150 36772 ft 537 kts 79°
2026-05-04 15:18 36.72257 -97.64912 36778 ft 532 kts 79°
2026-05-04 15:19 36.72952 -97.51153 36790 ft 533 kts 79°
2026-05-04 15:19 36.73633 -97.37395 36789 ft 532 kts 79°
2026-05-04 15:20 36.74081 -97.28149 36795 ft 531 kts 80°
2026-05-04 15:20 36.74514 -97.19006 36803 ft 532 kts 79°
2026-05-04 15:21 36.74944 -97.09800 36799 ft 530 kts 80°
2026-05-04 15:22 36.75572 -96.96089 36797 ft 529 kts 79°
2026-05-04 15:22 36.76185 -96.82342 36806 ft 530 kts 79°
2026-05-04 15:23 36.76584 -96.73254 36797 ft 526 kts 80°
2026-05-04 15:23 36.77024 -96.64062 36802 ft 528 kts 79°
2026-05-04 15:24 36.77839 -96.45874 36805 ft 524 kts 79°
2026-05-04 15:25 36.78209 -96.36806 36808 ft 529 kts 79°
2026-05-04 15:26 36.78739 -96.23128 36807 ft 525 kts 81°
2026-05-04 15:26 36.79250 -96.09483 36808 ft 527 kts 81°
2026-05-04 15:27 36.79747 -95.95840 36811 ft 523 kts 81°
2026-05-04 15:28 36.80230 -95.82255 36794 ft 524 kts 81°
2026-05-04 15:29 36.80692 -95.68726 36803 ft 521 kts 81°
2026-05-04 15:30 36.81710 -95.37244 36816 ft 517 kts 81°
2026-05-04 15:31 36.82112 -95.23914 36821 ft 517 kts 82°
2026-05-04 15:32 36.82752 -95.01667 36822 ft 512 kts 82°
2026-05-04 15:34 36.83359 -94.79491 36828 ft 509 kts 82°
2026-05-04 15:34 36.83696 -94.66294 36829 ft 509 kts 82°
2026-05-04 15:35 36.84019 -94.53125 36839 ft 509 kts 82°
2026-05-04 15:36 36.85053 -94.40096 36824 ft 497 kts 71°
2026-05-04 15:36 36.86606 -94.31760 36710 ft 489 kts 68°
2026-05-04 15:37 36.87483 -94.27687 36856 ft 489 kts 67°
2026-05-04 15:37 36.88410 -94.23580 36851 ft 492 kts 67°
2026-05-04 15:37 36.90277 -94.15367 36861 ft 496 kts 68°
2026-05-04 15:38 36.92103 -94.07134 36876 ft 494 kts 68°
2026-05-04 15:38 36.93893 -93.98852 36872 ft 490 kts 68°
2026-05-04 15:39 36.95641 -93.90671 36891 ft 492 kts 69°
2026-05-04 15:40 36.98261 -93.78330 36889 ft 490 kts 69°
2026-05-04 15:40 36.99988 -93.70154 36861 ft 488 kts 69°
2026-05-04 15:41 37.01710 -93.61953 36872 ft 488 kts 69°
2026-05-04 15:41 37.03416 -93.53812 36865 ft 488 kts 69°
2026-05-04 15:42 37.05131 -93.45599 36866 ft 486 kts 69°
2026-05-04 15:42 37.06826 -93.37460 36867 ft 488 kts 69°
2026-05-04 15:43 37.08520 -93.29290 36858 ft 485 kts 70°
2026-05-04 15:43 37.10201 -93.21145 36860 ft 486 kts 70°
2026-05-04 15:44 37.11894 -93.12910 36871 ft 487 kts 70°
2026-05-04 15:44 37.13560 -93.04768 36856 ft 485 kts 70°
2026-05-04 15:45 37.15235 -92.96570 36850 ft 487 kts 70°
2026-05-04 15:45 37.16895 -92.88398 36861 ft 485 kts 70°
2026-05-04 15:46 37.18543 -92.80257 36855 ft 483 kts 70°
2026-05-04 15:46 37.20188 -92.72101 36868 ft 485 kts 70°
2026-05-04 15:47 37.21831 -92.63932 36863 ft 484 kts 70°
2026-05-04 15:47 37.23465 -92.55782 36866 ft 484 kts 71°
2026-05-04 15:48 37.25088 -92.47642 36874 ft 484 kts 70°
2026-05-04 15:48 37.27524 -92.35373 36865 ft 484 kts 71°
2026-05-04 15:49 37.29133 -92.27224 36865 ft 484 kts 71°
2026-05-04 15:49 37.30746 -92.19030 36860 ft 484 kts 71°
2026-05-04 15:50 37.32344 -92.10869 36862 ft 482 kts 71°
2026-05-04 15:50 37.33937 -92.02708 36862 ft 483 kts 71°
2026-05-04 15:51 37.35527 -91.94528 36851 ft 482 kts 71°
2026-05-04 15:51 37.37103 -91.86390 36859 ft 482 kts 71°
2026-05-04 15:52 37.38678 -91.78240 36864 ft 483 kts 71°
2026-05-04 15:52 37.40252 -91.70044 36872 ft 483 kts 71°
2026-05-04 15:53 37.41813 -91.61884 36863 ft 481 kts 71°
2026-05-04 15:53 37.43371 -91.53708 36869 ft 483 kts 71°
2026-05-04 15:54 37.44924 -91.45519 36871 ft 482 kts 71°
2026-05-04 15:54 37.46468 -91.37350 36871 ft 481 kts 71°
2026-05-04 15:55 37.48006 -91.29182 36871 ft 482 kts 72°
2026-05-04 15:55 37.49547 -91.20971 36871 ft 482 kts 72°
2026-05-04 15:56 37.51071 -91.12809 36871 ft 481 kts 72°
2026-05-04 15:56 37.52592 -91.04626 36869 ft 481 kts 72°
2026-05-04 15:57 37.54109 -90.96434 36862 ft 481 kts 72°
2026-05-04 15:57 37.55619 -90.88251 36870 ft 481 kts 72°
2026-05-04 15:58 37.57119 -90.80086 36859 ft 481 kts 72°
2026-05-04 15:58 37.58617 -90.71903 36867 ft 482 kts 72°
2026-05-04 15:59 37.60107 -90.63724 36871 ft 482 kts 72°
2026-05-04 15:59 37.61597 -90.55520 36868 ft 482 kts 72°
2026-05-04 16:00 37.63083 -90.47293 36867 ft 482 kts 72°
2026-05-04 16:00 37.64564 -90.39056 36864 ft 482 kts 72°
2026-05-04 16:01 37.66041 -90.30810 36868 ft 483 kts 73°
2026-05-04 16:01 37.67507 -90.22561 36864 ft 484 kts 74°
2026-05-04 16:02 37.68641 -90.14242 36866 ft 485 kts 78°
2026-05-04 16:03 37.69928 -90.01606 36860 ft 486 kts 79°
2026-05-04 16:03 37.70784 -89.93153 36862 ft 485 kts 79°
2026-05-04 16:04 37.71669 -89.84705 36859 ft 485 kts 79°
2026-05-04 16:04 37.73021 -89.72093 36863 ft 485 kts 78°
2026-05-04 16:05 37.73919 -89.63730 36857 ft 484 kts 78°
2026-05-04 16:06 37.75268 -89.51118 36866 ft 484 kts 78°
2026-05-04 16:07 37.77043 -89.34325 36875 ft 484 kts 79°
2026-05-04 16:08 37.78796 -89.17477 36880 ft 485 kts 79°
2026-05-04 16:09 37.80972 -88.96229 36884 ft 484 kts 79°
2026-05-04 16:10 37.82708 -88.79118 36880 ft 485 kts 79°
2026-05-04 16:11 37.84401 -88.62223 36886 ft 486 kts 79°
2026-05-04 16:12 37.86899 -88.36833 36879 ft 485 kts 79°
2026-05-04 16:13 37.88531 -88.19898 36876 ft 486 kts 80°
2026-05-04 16:14 37.90140 -88.02967 36881 ft 487 kts 80°
2026-05-04 16:16 37.92121 -87.81735 36892 ft 487 kts 80°
2026-05-04 16:17 37.94062 -87.60515 36897 ft 487 kts 79°
2026-05-04 16:18 37.95587 -87.43544 36896 ft 486 kts 80°
2026-05-04 16:19 37.97460 -87.22313 36901 ft 488 kts 81°
2026-05-04 16:20 37.99294 -87.01057 36900 ft 486 kts 80°
2026-05-04 16:22 38.01080 -86.79858 36900 ft 488 kts 81°
2026-05-04 16:23 38.03124 -86.54254 36904 ft 487 kts 81°
2026-05-04 16:25 38.05113 -86.28693 36907 ft 487 kts 82°
2026-05-04 16:26 38.07372 -85.98799 36926 ft 488 kts 82°
2026-05-04 16:28 38.08934 -85.77521 36909 ft 487 kts 82°
2026-05-04 16:29 38.09026 -85.47565 36929 ft 492 kts 99°
2026-05-04 16:31 38.05546 -85.26399 36922 ft 492 kts 101°
2026-05-04 16:32 38.01452 -85.00924 36932 ft 492 kts 101°
2026-05-04 16:33 37.98751 -84.84002 36943 ft 492 kts 101°
2026-05-04 16:34 37.96710 -84.71321 36946 ft 492 kts 101°
2026-05-04 16:35 37.92580 -84.45946 36942 ft 492 kts 101°
2026-05-04 16:36 37.90498 -84.33279 36941 ft 492 kts 101°
2026-05-04 16:37 37.88397 -84.20588 36948 ft 492 kts 101°
2026-05-04 16:38 37.85576 -84.03681 36953 ft 492 kts 101°
2026-05-04 16:39 37.82007 -83.82540 36955 ft 493 kts 101°
2026-05-04 16:40 37.79128 -83.65646 36957 ft 494 kts 101°
2026-05-04 16:41 37.75492 -83.44538 36960 ft 495 kts 101°
2026-05-04 16:43 37.71807 -83.23396 36976 ft 495 kts 102°
2026-05-04 16:43 37.69572 -83.10697 36986 ft 495 kts 102°
2026-05-04 16:45 37.65078 -82.85374 36984 ft 496 kts 102°
2026-05-04 16:46 37.63645 -82.72530 36990 ft 491 kts 87°
2026-05-04 16:46 37.64114 -82.63967 36992 ft 490 kts 81°
2026-05-04 16:47 37.65905 -82.47047 36994 ft 489 kts 79°
2026-05-04 16:48 37.67605 -82.30099 36984 ft 489 kts 81°
2026-05-04 16:49 37.69193 -82.13084 36974 ft 488 kts 81°
2026-05-04 16:50 37.70750 -81.96053 36983 ft 490 kts 80°
2026-05-04 16:51 37.71898 -81.83317 36987 ft 488 kts 80°
2026-05-04 16:52 37.73412 -81.66286 36995 ft 489 kts 81°
2026-05-04 16:53 37.74520 -81.53596 37001 ft 487 kts 80°
2026-05-04 16:54 37.75981 -81.36643 37016 ft 488 kts 80°
2026-05-04 16:55 37.78139 -81.11175 37033 ft 486 kts 81°
2026-05-04 16:56 37.80556 -80.90104 37027 ft 485 kts 78°
2026-05-04 16:57 37.82061 -80.77457 37015 ft 486 kts 78°
2026-05-04 16:58 37.83992 -80.60628 37028 ft 484 kts 78°
2026-05-04 17:00 37.87532 -80.35628 37021 ft 478 kts 66°
2026-05-04 17:01 37.94073 -80.16420 37026 ft 476 kts 61°
2026-05-04 17:02 37.99428 -80.01052 36729 ft 478 kts 62°
2026-05-04 17:02 38.02034 -79.93400 36225 ft 472 kts 62°
2026-05-04 17:03 38.03332 -79.89563 35935 ft 472 kts 62°
2026-05-04 17:03 38.04618 -79.85761 35610 ft 473 kts 62°
2026-05-04 17:03 38.07196 -79.78123 34936 ft 473 kts 61°
2026-05-04 17:04 38.09789 -79.70418 34137 ft 473 kts 61°
2026-05-04 17:04 38.12361 -79.62759 33352 ft 475 kts 61°
2026-05-04 17:05 38.14961 -79.54993 32551 ft 478 kts 61°
2026-05-04 17:05 38.17534 -79.47280 31761 ft 479 kts 61°
2026-05-04 17:06 38.20137 -79.39460 30961 ft 481 kts 61°
2026-05-04 17:06 38.21432 -79.35558 30559 ft 481 kts 61°
2026-05-04 17:07 38.24051 -79.27670 29747 ft 487 kts 62°
2026-05-04 17:07 38.24940 -79.24990 29475 ft 486 kts 62°
2026-05-04 17:07 38.26671 -79.19748 28935 ft 484 kts 62°
2026-05-04 17:07 38.27964 -79.15821 28539 ft 483 kts 63°
2026-05-04 17:08 38.29264 -79.11874 28135 ft 485 kts 63°
2026-05-04 17:08 38.31846 -79.04007 27346 ft 486 kts 63°
2026-05-04 17:08 38.33145 -79.00036 27034 ft 479 kts 63°
2026-05-04 17:09 38.34401 -78.96182 26989 ft 461 kts 63°
2026-05-04 17:09 38.35590 -78.92519 26998 ft 444 kts 63°
2026-05-04 17:09 38.36740 -78.88972 26995 ft 427 kts 63°
2026-05-04 17:10 38.38932 -78.82216 26984 ft 396 kts 62°
2026-05-04 17:10 38.42077 -78.72604 26989 ft 402 kts 62°
2026-05-04 17:11 38.43159 -78.69296 26981 ft 415 kts 63°
2026-05-04 17:11 38.44260 -78.65807 26977 ft 429 kts 64°
2026-05-04 17:11 38.46279 -78.58423 26356 ft 458 kts 68°
2026-05-04 17:12 38.47250 -78.54577 25871 ft 455 kts 69°
2026-05-04 17:12 38.49124 -78.46984 24894 ft 443 kts 69°
2026-05-04 17:13 38.51853 -78.36002 23490 ft 426 kts 69°
2026-05-04 17:14 38.54499 -78.25436 22171 ft 408 kts 69°
2026-05-04 17:14 38.55347 -78.21993 21741 ft 404 kts 69°
2026-05-04 17:14 38.57013 -78.15198 20879 ft 401 kts 69°
2026-05-04 17:15 38.57826 -78.11818 20558 ft 397 kts 70°
2026-05-04 17:15 38.59294 -78.05067 19974 ft 395 kts 72°
2026-05-04 17:16 38.60708 -77.98281 19399 ft 392 kts 72°
2026-05-04 17:16 38.62821 -77.88277 18974 ft 387 kts 72°
2026-05-04 17:17 38.63527 -77.84963 18974 ft 389 kts 72°
2026-05-04 17:17 38.65035 -77.74789 18387 ft 388 kts 82°
2026-05-04 17:18 38.65245 -77.71333 18126 ft 386 kts 84°
2026-05-04 17:18 38.65578 -77.64500 17628 ft 386 kts 84°
2026-05-04 17:19 38.65930 -77.57680 17126 ft 384 kts 84°
2026-05-04 17:19 38.66311 -77.50904 16623 ft 380 kts 83°
2026-05-04 17:20 38.66700 -77.44198 16133 ft 381 kts 83°
2026-05-04 17:20 38.67087 -77.37481 15289 ft 378 kts 83°
2026-05-04 17:20 38.67277 -77.34158 14837 ft 374 kts 84°
2026-05-04 17:21 38.67651 -77.27564 13943 ft 372 kts 84°
2026-05-04 17:21 38.68026 -77.21028 13074 ft 366 kts 84°
2026-05-04 17:22 38.68211 -77.17780 12996 ft 361 kts 84°
2026-05-04 17:22 38.68394 -77.14553 12990 ft 367 kts 84°
2026-05-04 17:23 38.68935 -77.04831 12440 ft 363 kts 84°
2026-05-04 17:23 38.69111 -77.01635 11954 ft 363 kts 84°
2026-05-04 17:23 38.69459 -76.95256 10925 ft 350 kts 84°
2026-05-04 17:24 38.69624 -76.92217 10429 ft 341 kts 84°
2026-05-04 17:24 38.70084 -76.83472 9036 ft 315 kts 85°
2026-05-04 17:25 38.70190 -76.80728 9002 ft 304 kts 86°
2026-05-04 17:25 38.70381 -76.75286 8991 ft 309 kts 86°
2026-05-04 17:26 38.70775 -76.69887 8989 ft 299 kts 66°
2026-05-04 17:26 38.74636 -76.64044 8363 ft 293 kts 51°
2026-05-04 17:27 38.76900 -76.59690 7502 ft 297 kts 53°
2026-05-04 17:27 38.80078 -76.56642 6614 ft 286 kts
2026-05-04 17:28 38.83937 -76.55974 5933 ft 278 kts
2026-05-04 17:29 38.89793 -76.55126 4842 ft 275 kts 16°
2026-05-04 17:29 38.95300 -76.54732 3796 ft 246 kts 355°
2026-05-04 17:30 39.00393 -76.54926 2745 ft 226 kts 355°
2026-05-04 17:31 39.03586 -76.55063 2057 ft 219 kts 351°
2026-05-04 17:31 39.07064 -76.57638 2011 ft 176 kts 320°
2026-05-04 17:32 39.09110 -76.59491 1993 ft 166 kts 319°
2026-05-04 17:33 39.11935 -76.62006 1279 ft 162 kts 320°
2026-05-04 17:33 39.12863 -76.62882 1032 ft 157 kts 318°
2026-05-04 17:34 39.15396 -76.65289 479 ft 146 kts 319°
2026-05-04 17:34 39.16242 -76.66077 207 ft 148 kts 321°
2026-05-04 17:35 39.17954 -76.67664 134 ft 39 kts 323°
2026-05-04 17:35 39.18113 -76.67763 134 ft 2 kts 13°
2026-05-04 17:35 39.18119 -76.67762 134 ft 3 kts 15°
2026-05-04 17:36 39.18158 -76.67724 135 ft 5 kts 51°
2026-05-04 17:36 39.18176 -76.67693 136 ft 5 kts 53°
2026-05-04 17:36 39.18199 -76.67628 139 ft 6 kts 97°
2026-05-04 17:36 39.18180 -76.67590 140 ft 4 kts 134°
2026-05-04 17:37 39.18153 -76.67548 140 ft 6 kts 113°
2026-05-04 17:37 39.18150 -76.67505 142 ft 4 kts 77°
2026-05-04 17:37 39.18171 -76.67455 144 ft 2 kts 56°
2026-05-04 17:37 39.18176 -76.67446 144 ft 2 kts 57°
2026-05-04 17:38 39.18200 -76.67411 146 ft 4 kts 39°
2026-05-04 17:38 39.18221 -76.67375 147 ft 5 kts 78°
2026-05-04 17:38 39.18202 -76.67346 147 ft 4 kts 166°
2026-05-04 17:38 39.18174 -76.67363 146 ft 3 kts 213°
2026-05-04 17:39 39.18173 -76.67364 146 ft 0 kts 213°